OBJECT C

Satellite information

Favourite Embed

Satellite Type and Status

UNKNOWNIN ORBIT

Key statistics

Satellite OBJECT C at a glance.

Uptime

3026

Days in orbit

Revolutions

≈ 15.2

Per day

Orbit

SSO

Sun Synchronous Orbit

Inclination

97.4

Latest

Satellite identification and parameters

Extended collection of information and parameters for OBJECT C.

Object identification

Identified? True

Debris? False

Object name: OBJECT C

International designator: 2017-042C

Object number (NORAD): 42827

Object ID (CCSDS): 42827

Country: TO BE DETERMINED/UNKNOWN (TBD)

Current information (Y/N): Y

RCS size: SMALL

Orbital parameters

Period: 94.85 minutes

Inclination: 97.4007 deg

SMA: 6889.469 km

Apoapsis: 518.517 km

Periapsis: 504.151 km

RAAN: 112.9151 deg

Eccentricy: 0.0010426

Argument of periapsis: 174.1531 deg

Mean anomaly: 185.9827 deg

Mean motion: 15.18183126 rev/day

Mean motion (dot): 0.00016411 rev/day2

B* drag term: 0.00080393045 1/REarth

Two-line elements (TLE)

Creation date: Oct. 26, 2025, 2:54 a.m.

Reference frame: TEME

Reference center: EARTH

Epoch: Oct. 25, 2025, 10:17 p.m. UTC

TLE line 0: 0 OBJECT C

TLE line 1: 1 42827U 17042C 25298.92857451 .00016411 00000-0 80393-3 0 9993

TLE line 2: 2 42827 97.4007 112.9151 0010426 174.1531 185.9827 15.18183126452194

Live tracking on map

Real-time ground track for satellite OBJECT C.

In-orbit conjunctions

There are no conjunctions computed for OBJECT C, at the moment. Check back to stay up to date, as we update our databases every day.

Go to all conjunctions

Associated space launch

Kanopus-V-IK is a small Russian remote sensing satellite for monitoring wildfires. Weighing about 473 kg, it is intended for 5 years of operation in a 510 km sun-synchronous orbit.

OBJECT C was lifted into orbit during the mission ‘Soyuz-2.1a/Fregat | Kanopus-V-IK’, on board a Soyuz 2.1a/Fregat-M space rocket.

The launch took place on July 14, 2017, 6:36 a.m. from 31/6.

For more information about the launch, click the button.

Launch to space Soyuz-2.1a/Fregat | Kanopus-V-IK
Soyuz-2.1a/Fregat | Kanopus-V-IK

Agency: N/A

Status: Launch was a Partial Failure

Launch date: July 14, 2017, 6:36 a.m. UTC

Rocket: Soyuz 2.1a/Fregat-M

Launch pad: 31/6

Location: Baikonur Cosmodrome, Republic of Kazakhstan

...

Latest news about this satellite

There are no fresh news available about this satellite. Check back as we update our databases every day.


Newsletter sign-up

Weekly statistics, charts and insights to help you stay on top of the space industry.